Location: Brain
(47.4632°N, 4.5061°E)
Time: 15:00:41
(UTC+00:00)

Daily predictions for brighter satellites

Satellite Brightness Start Highest point End
(mag) Time Altitude Azimuth Time Altitude Azimuth Time Altitude Azimuth
Cosmos 1486 Rocket 4.1 17:54:02 10° NNW 17:59:17 61° ENE 18:04:32 10° SE
Cosmos 1515 4.1 17:56:12 10° N 17:59:50 40° ENE 18:03:27 10° SSE
Okean 1 3.8 17:56:06 10° N 17:59:56 40° ENE 18:03:45 10° SSE
USA 234 4.4 17:54:53 10° ENE 17:59:57 24° SE 18:05:01 10° S
Cosmos 1633 Rocket 3.2 17:58:20 10° S 18:02:39 55° E 18:07:00 10° NNE
Cosmos 2184 Rocket 4.0 17:56:41 10° S 18:02:46 66° E 18:08:56 10° NNE
SeaSat 1 3.4 17:58:46 10° NE 18:02:54 26° ESE 18:07:01 10° SSE
Okean 1-7 4.4 18:00:05 10° NNE 18:03:14 19° ENE 18:06:20 10° ESE
Cosmos 1707 Rocket 3.6 17:59:05 10° N 18:03:30 88° WSW 18:07:51 10° S
Cosmos 1939 Rocket 4.3 17:59:52 10° S 18:03:32 42° W 18:07:14 10° NNW
CZ-2C R/B 3.4 18:03:09 10° NNE 18:07:59 31° E 18:12:42 10° SSE
CZ-4 R/B 1.2 18:04:40 10° SSE 18:08:30 70° ENE 18:12:25 10° N
H-2A R/B 2.2 18:03:09 10° SSE 18:08:35 71° ENE 18:14:01 10° N
USA 305 4.0 18:06:16 10° W 18:10:17 38° NNW 18:14:18 10° ENE
SAR-Lupe-4 4.3 18:07:24 10° NNE 18:10:39 31° E 18:13:53 10° SSE
IRS-1C Rocket 4.2 18:07:06 10° SSE 18:12:23 89° WSW 18:17:42 10° NNW
Gbstr 26 Del rocket 3.6 18:08:44 10° W 18:13:00 60° NNW 18:18:14 10° ENE
Meteor 1-20 Rocket 4.1 18:09:30 10° S 18:14:57 80° E 18:20:28 10° NNE
Cosmos 1302 Rocket 4.2 18:10:08 10° SSW 18:15:19 77° WNW 18:20:34 10° NNE
SL-4 R/B 2.4 18:12:13 10° WNW 18:15:39 41° N 18:18:38 12° ENE
USA 307 4.0 18:17:36 10° W 18:21:37 37° N 18:25:37 10° ENE
FALCON 9 DEB 3.3 18:20:10 10° WNW 18:23:34 58° NNE 18:26:13 15° E
ATLAS CENTAUR R/B 1.9 18:20:44 10° S 18:23:54 29° ESE 18:26:57 11° ENE
USA 186 3.3 18:25:07 12° NE 18:25:07 12° NE 18:25:49 10° NE
USA 306 4.0 18:21:05 10° WNW 18:25:03 36° N 18:28:56 10° ENE
Cosmos 1354 Rocket 4.2 18:20:50 10° NNW 18:25:59 52° ENE 18:31:05 10° SE
Cosmos 44 Rocket 3.6 18:22:04 10° NW 18:27:20 79° SW 18:32:31 10° SSE
FALCON 9 DEB 4.4 18:24:40 10° WNW 18:27:29 28° N 18:29:48 13° ENE
ERS-2 2.2 18:24:24 10° NNE 18:28:00 55° ESE 18:31:36 10° S
Okean-O 2.7 18:23:55 10° SSE 18:28:21 88° WSW 18:32:49 10° NNW
FALCON 9 DEB 4.4 18:26:34 10° WNW 18:29:25 29° N 18:31:45 13° NE
Cosmos 1844 Rocket 2.8 18:24:10 10° NNW 18:29:39 54° ENE 18:35:06 10° SE
CSL-04 Rocket 3.7 18:24:17 10° SSE 18:29:44 62° ENE 18:35:11 10° N
Cosmos 2084 Rocket 3.5 18:25:25 10° NW 18:29:46 87° NE 18:34:16 10° SE
SAR-Lupe-1 4.1 18:26:36 10° NNE 18:30:09 55° E 18:33:41 10° S
CSL-04 Debris 4.2 18:25:42 10° SSE 18:31:04 68° ENE 18:36:32 10° N
USA 308 4.1 18:28:17 10° WNW 18:32:16 36° N 18:35:51 12° ENE
Cosmos 1271 Rocket 4.5 18:30:28 10° NNW 18:33:54 35° W 18:37:21 10° SSW
Cosmos 1666 3.7 18:30:58 10° SE 18:33:56 23° E 18:36:56 10° NE
Cosmos 1503 Rocket 3.9 18:31:02 10° NNW 18:36:15 72° ENE 18:41:24 10° SSE
HJ-1C 3.2 18:32:58 10° SSE 18:36:16 82° ENE 18:39:36 10° N
Cosmos 2341 Rocket 4.3 18:31:57 10° SSE 18:37:53 45° E 18:43:47 10° NNE
PSLV R/B 3.9 18:35:01 10° NNE 18:39:08 87° WNW 18:43:11 10° SSW
Cosmos 1844 3.9 18:35:46 10° NNW 18:41:28 56° ENE 18:46:58 11° SE
Cosmos 1470 Rocket 3.5 18:37:22 10° S 18:41:51 81° E 18:46:19 10° NNE
CZ-4B R/B 3.6 18:40:25 10° N 18:43:02 26° WNW 18:45:39 10° SW
Cosmos 2360 Rocket 2.2 18:38:51 10° S 18:44:21 57° ESE 18:49:54 10° NE
Ariane Rocket 3.8 18:42:04 16° ESE 18:45:16 31° ENE 18:49:43 10° N
Cosmos 1602 4.5 18:41:42 10° SSW 18:45:32 57° WNW 18:49:25 10° N
Cosmos 2278 Rocket 3.7 18:42:26 10° N 18:46:33 20° NE 18:48:36 17° ENE
Cosmos 1500 3.0 18:48:50 10° S 18:52:33 81° E 18:56:18 10° N
Meteor 2-4 Rocket 3.7 18:47:48 10° N 18:53:40 78° ENE 18:59:36 10° SSE
Cosmos 1703 Rocket 3.5 18:49:32 10° N 18:53:55 59° ENE 18:58:13 10° SSE
Cosmos 2333 Rocket 2.9 18:49:43 10° SSE 18:54:37 31° ESE 18:59:34 10° NE
Cosmos 2218 Rocket 4.4 18:50:35 10° SSE 18:56:29 41° E 19:02:25 10° NNE
Cosmos 1689 Rocket 2.9 18:53:42 10° N 18:56:30 50° WNW 18:59:18 10° SSW
SL-08 RB Rocket 3.7 18:52:25 10° SSE 18:56:56 86° WSW 19:01:32 10° NNW
Meteor 2-12 Rocket 4.4 18:51:58 10° S 18:58:02 87° W 19:04:11 10° N
ERBS 4.1 18:57:16 10° W 19:00:09 27° NNW 19:02:19 14° NNE
Cosmos 1933 Rocket 3.5 18:58:24 10° S 19:02:45 88° ESE 19:07:10 10° N
Aureole 2 Rocket 3.5 19:02:24 10° NW 19:04:41 30° WSW 19:06:52 10° S
Resurs 01 Rocket 3.0 19:12:41 22° NE 19:12:41 22° NE 19:15:23 10° NNE
Cosmos 2242 Rocket 3.7 19:07:27 10° NNW 19:11:59 81° W 19:16:26 10° S
Cosmos 2322 Rocket 2.9 19:08:55 10° SW 19:14:24 54° WNW 19:19:56 10° NNE
Lacrosse 4 Rocket 2.9 19:12:28 10° S 19:14:29 23° SSE 19:14:29 23° SSE
Abrixas rocket 2.4 19:14:09 10° W 19:16:07 47° WNW 19:16:07 47° WNW
SME Rocket 4.2 19:10:10 10° NNE 19:18:17 57° E 19:23:33 10° S
Cosmos 1959 Rocket 4.4 19:12:40 10° S 19:18:36 57° E 19:24:35 10° NNE
Helios 1A Rocket 4.3 19:15:38 10° SSW 19:19:25 38° W 19:23:13 10° NNW
FALCON 9 DEB 4.1 19:17:49 10° WNW 19:20:43 31° N 19:20:47 31° NNE
Cosmos 192 4.4 19:17:02 10° S 19:21:47 53° ESE 19:26:35 10° NNE
SJ-6B 2.7 19:22:30 35° SSE 19:24:11 79° ENE 19:28:15 10° N
COSMOS 2428 3.1 19:19:23 10° S 19:24:36 39° ESE 19:24:51 39° E
ASTEX 1 3.3 19:22:33 10° NNE 19:27:24 58° E 19:30:11 24° SSE
GP-B 3.8 19:24:04 10° SSW 19:28:24 54° W 19:32:47 10° N
MOS 1 4.2 19:25:33 24° SSE 19:29:03 71° ENE 19:34:43 10° N
Meteor 1-23 Rocket 4.4 19:24:02 10° N 19:29:26 47° ENE 19:30:27 43° ESE
Cosmos 2219 Rocket 2.2 19:26:07 10° S 19:31:30 52° ESE 19:36:56 10° NE
Meteor 1-11 Rocket 3.6 19:26:10 10° S 19:31:49 65° E 19:37:22 10° NNE
MetOp-A 4.3 19:27:51 10° S 19:33:12 75° WSW 19:38:35 10° NNW
FALCON 9 DEB 4.3 19:30:15 10° NW 19:32:42 32° N 19:32:42 32° N
Cosmos 1241 Rocket 4.5 19:27:07 10° NW 19:33:47 87° NE 19:36:55 34° SE
OBJECT-B 1.6 19:36:24 44° NNW 19:36:24 44° NNW 19:38:43 10° NNW
Resurs 1-3 3.6 19:38:47 62° ENE 19:38:47 62° ENE 19:43:02 10° N
SL-16 R/B 3.9 19:34:20 10° WSW 19:39:21 32° NW 19:44:25 10° NNE
SJ 16-02 2.3 19:36:25 10° N 19:39:34 35° NNE 19:39:34 35° NNE
SeaSat 1 3.2 19:35:50 10° NNE 19:40:38 52° NW 19:45:25 10° SW
Okean 1-7 4.0 19:36:52 10° NNW 19:41:05 47° W 19:45:14 10° SSW
Cosmos 1066 Rocket 4.1 19:37:39 10° N 19:43:23 78° ENE 19:45:41 39° SSE
USA 234 3.1 19:39:54 28° ENE 19:43:40 77° SE 19:50:12 10° SW
Meteor 1-13 Rocket 4.4 19:37:49 10° NNW 19:43:48 79° W 19:48:31 16° S
CZ-2C R/B 3.9 19:43:14 10° N 19:48:24 43° WNW 19:53:26 10° SW
IRS-1A Rocket 4.3 19:46:43 26° S 19:50:03 79° WSW 19:55:38 10° NNW
USA 305 3.9 19:46:59 10° WNW 19:50:56 36° N 19:50:56 36° N
BREEZE-M DEB (TANK) 2.6 19:48:19 10° WNW 19:51:07 74° NNE 19:51:09 73° NNE
Cosmos 2322 3.6 19:45:45 10° SSW 19:51:29 90° SSE 19:57:16 10° NNE
SL-4 R/B 3.0 19:51:55 10° WNW 19:54:12 38° WNW 19:54:12 38° WNW
Cosmos 1869 Rocket 4.0 19:52:47 10° SSW 19:57:05 60° WNW 20:01:27 10° N
SL-8 Rocket 4.4 19:53:24 10° SSW 19:59:34 62° WNW 20:05:44 10° N
Gbstr 26 Del rocket 3.8 19:55:44 10° WNW 20:00:29 57° N 20:00:59 55° NNE
USA 307 4.1 19:58:20 10° WNW 20:01:49 36° N 20:01:49 36° N
ATLAS CENTAUR R/B 2.8 19:59:29 10° WSW 20:02:43 30° NW 20:03:11 29° NNW
USA 306 4.1 20:01:43 10° WNW 20:05:03 36° NNW 20:05:03 36° NNW
USA 308 4.3 20:08:56 10° WNW 20:11:59 34° NNW 20:11:59 34° NNW
SL-08 R/B 4.5 20:11:58 29° S 20:15:35 90° E 20:22:07 10° N
NOSS 3-3 (A) 4.4 20:10:02 10° NW 20:17:27 72° NE 20:18:42 62° E
NOSS 3-3 (C) 4.4 20:10:08 10° NW 20:17:33 72° NE 20:18:47 62° E
SPOT 3 Rocket 3.7 20:18:37 70° NNW 20:18:37 70° NNW 20:23:16 10° NNW
Ariane Rocket 4.1 20:22:15 29° SW 20:24:06 40° W 20:28:55 10° NNW
Cosmos 2360 Rocket 4.0 20:23:48 10° WSW 20:28:42 29° NW 20:33:37 10° NNE
Cosmos 2278 Rocket 2.5 20:25:46 10° NNW 20:30:28 62° NNW 20:30:28 62° NNW
Cosmos 2333 Rocket 3.0 20:33:11 10° SW 20:38:40 48° NW 20:44:14 10° NNE
Cosmos 1821 Rocket 4.3 20:41:55 58° N 20:41:55 58° N 20:46:50 10° N
Resurs 01 Rocket 3.6 20:50:14 26° NW 20:50:14 26° NW 20:52:24 10° NNW
Cosmos 1943 Rocket 4.0 20:45:49 10° NNW 20:48:24 22° N 20:48:24 22° N
COSMOS 2428 4.1 21:03:34 10° WSW 21:14:00 11° NNE 21:14:13 10° NNE
Cosmos 2219 Rocket 3.8 21:10:48 10° WSW 21:15:43 31° NW 21:20:41 10° NNE
SJ 16-02 4.2 21:15:27 10° NW 21:16:35 15° WNW 21:16:35 15° WNW
USA 234 4.0 21:27:15 48° NW 21:27:15 48° NW 21:32:45 10° W
USA 281 4.5 21:34:30 33° N 21:34:30 33° N 21:38:05 10° NNW
Cosmos 2369 Rocket 4.4 21:30:58 10° NNW 21:32:29 18° N 21:32:29 18° N
